Location: Unspecified
(48.7971°N, 123.6320°W)
Time: 11:23:08
(UTC-07:00)

Okean 3 - Pass Details

Date: 28 June 2019
Orbit: 575 x 602 km, 82.5° (Epoch: 19 August)

Event Time Altitude Azimuth Distance (km) Brightness Sun altitude
Rises 03:13:51 0° 2° (N) 2,868 8.2 -13.4°
Reaches altitude 10° 03:16:38 10° 20° (NNE) 1,958 7.6 -13.2°
Maximum altitude 03:19:45 19° 67° (ENE) 1,446 6.2 -12.9°
Drops below altitude 10° 03:22:51 10° 113° (ESE) 1,940 6.2 -12.7°
Sets 03:25:35 0° 131° (SE) 2,833 6.8 -12.5°
